Content
SEND FEEDBACK

Daily
Averages
Monthly
Summary
United States of America

LINCOLN, ILLINOIS


Home > North America > United States > Illinois
Elevation: 555 feet     Latitude: 40 09N     Longitude: 089 24W

WEATHER
 
SELECT A DAY
Number of Records: 322,661;   Date Range: 9/6/01 - 7/7/14
 
SHARE

PRINT THIS DATA

[ ← Previous Day ]
WEATHER ALMANAC - NOVEMBER 5, 2013
[ Next Day → ]
[ °C ]   °F
Weather ElementAverageHighLow
Temperature54.9 °F58.1 °F (2:35 pm)52 °F (7:35 am)
Dewpoint49.9 °F52.7 °F (2:15 pm)45.1 °F (12:35 am)
Humidity83.6 %96 % (8:55 am)73 % (12:35 am)
Barometer30.16 in30.27 in (7:55 am)29.98 in (10:55 pm)
Wind Speed10.1 mph18.4 mph (11:55 pm)
Wind Gust24.2 mph (11:55 pm)
Weather ElementAverage
Visibility8.5 mi
Wind DirectionSSE (173 °)

Weather ElementTotal
Precipitation---
Heating Degree Days10 (Base 65)
Growing Degree Days5.1 (Base 50)
Averaged from 71 records on November 5, 2013
WEATHER CONDITIONS BREAKOUT
WIND DIRECTION BREAKOUT
WEATHER BY HOUR - NOVEMBER 5, 2013
[ °C ]   °F
Local TimeTemperatureDewpointHumidityBarometerVisibilityWind DirectionWind SpeedGust SpeedPrecipitationEventsConditions
12:35 AM53.8 °F45.1 °F73 %30.22 in10.0 miSouth (190°)8.1 mphOvercast
12:55 AM53.6 °F45.1 °F73 %30.22 in10.0 miSouth (190°)8.1 mphOvercast
1:15 AM53.8 °F45.3 °F73 %30.22 in10.0 miSouth (190°)4.6 mphOvercast
1:35 AM53.8 °F45.5 °F74 %30.22 in10.0 miSouth (190°)6.9 mphOvercast
1:55 AM53.8 °F45.5 °F74 %30.22 in10.0 miSouth (190°)6.9 mphOvercast
2:15 AM53.8 °F45.5 °F74 %30.23 in10.0 miSSW (200°)5.8 mphOvercast
2:35 AM54.0 °F45.5 °F73 %30.22 in10.0 miSouth (190°)9.2 mphOvercast
2:55 AM53.8 °F45.5 °F74 %30.22 in10.0 miSouth (190°)10.4 mphOvercast
3:15 AM53.8 °F45.7 °F74 %30.22 in10.0 miSouth (190°)9.2 mphOvercast
3:35 AM53.6 °F46.2 °F76 %30.23 in10.0 miSSW (200°)6.9 mphOvercast
3:55 AM53.4 °F46.8 °F78 %30.23 in10.0 miSSW (200°)5.8 mphOvercast
4:15 AM53.1 °F46.9 °F80 %30.22 in10.0 miSouth (190°)6.9 mphOvercast
4:35 AM53.1 °F47.7 °F82 %30.23 in10.0 miSouth (190°)4.6 mphOvercast
4:55 AM53.1 °F47.7 °F82 %30.22 in10.0 miSouth (180°)6.9 mphOvercast
5:15 AM53.1 °F47.3 °F81 %30.24 in10.0 miSouth (180°)8.1 mphOvercast
5:35 AM53.1 °F46.9 °F80 %30.24 in10.0 miSouth (180°)6.9 mphOvercast
5:55 AM53.1 °F47.3 °F81 %30.23 in10.0 miSouth (170°)4.6 mphOvercast
6:15 AM53.2 °F47.3 °F80 %30.24 in10.0 miSouth (170°)9.2 mphOvercast
6:35 AM53.4 °F47.5 °F80 %30.24 in10.0 miSouth (170°)9.2 mphOvercast
6:55 AM53.2 °F48.2 °F83 %30.25 in10.0 miSouth (180°)10.4 mphOvercast
7:15 AM52.7 °F48.9 °F87 %30.26 in4.0 miSouth (180°)9.2 mphRainRain
7:35 AM52.0 °F50.0 °F93 %30.26 in3.0 miSouth (190°)8.1 mphLight Drizzle
7:55 AM52.2 °F50.5 °F94 %30.27 in2.0 miSouth (180°)6.9 mphDrizzle
8:15 AM52.5 °F51.1 °F95 %30.27 in2.5 miSouth (190°)8.1 mphDrizzle
8:35 AM52.7 °F51.4 °F95 %30.27 in2.5 miSouth (190°)5.8 mphDrizzle
8:55 AM52.9 °F51.8 °F96 %30.27 in2.5 miSouth (190°)9.2 mphRainRain
9:15 AM53.1 °F51.8 °F95 %30.27 in3.0 miSouth (180°)9.2 mphRainRain
9:35 AM52.7 °F51.6 °F96 %30.27 in3.0 miSouth (170°)10.4 mphRainLight Rain
9:55 AM52.7 °F51.3 °F95 %30.27 in5.0 miSouth (170°)10.4 mph16.1 mphRainRain
10:15 AM52.5 °F51.1 °F95 %30.27 in4.0 miSouth (170°)12.7 mphDrizzle
10:35 AM52.7 °F51.3 °F95 %30.26 in3.0 miSSE (160°)11.5 mph17.3 mphRainLight Rain
10:55 AM53.1 °F51.8 °F95 %30.25 in5.0 miSouth (170°)10.4 mphRainLight Rain
11:15 AM53.6 °F52.0 °F94 %30.24 in7.0 miSouth (170°)10.4 mphLight Drizzle
11:35 AM53.6 °F51.6 °F93 %30.23 in10.0 miSouth (170°)11.5 mphLight Drizzle
11:55 AM53.6 °F51.3 °F92 %30.22 in7.0 miSSE (160°)10.4 mphRainLight Rain
12:15 PM53.6 °F51.6 °F93 %30.21 in7.0 miSouth (170°)8.1 mphRainLight Rain
12:35 PM53.6 °F51.4 °F92 %30.20 in7.0 miSouth (170°)8.1 mphOvercast
12:55 PM54.3 °F52.0 °F92 %30.19 in10.0 miSouth (170°)11.5 mph16.1 mphOvercast
1:15 PM54.9 °F52.0 °F90 %30.18 in10.0 miSouth (170°)12.7 mph17.3 mphOvercast
1:35 PM55.9 °F52.3 °F88 %30.17 in10.0 miSouth (170°)9.2 mph17.3 mphOvercast
1:55 PM56.5 °F52.2 °F85 %30.16 in10.0 miSSE (160°)10.4 mph17.3 mphOvercast
2:15 PM57.0 °F52.7 °F85 %30.14 in10.0 miSSE (160°)12.7 mphMostly Cloudy
2:35 PM58.1 °F52.3 °F81 %30.14 in10.0 miSSE (160°)12.7 mph18.4 mphMostly Cloudy
2:55 PM57.6 °F52.0 °F82 %30.13 in10.0 miSSE (160°)11.5 mphOvercast
3:15 PM57.4 °F51.8 °F82 %30.13 in10.0 miSSE (160°)12.7 mph18.4 mphOvercast
3:35 PM57.2 °F51.6 °F82 %30.12 in10.0 miSSE (160°)12.7 mph17.3 mphOvercast
3:55 PM56.8 °F51.4 °F82 %30.12 in10.0 miSSE (160°)9.2 mphOvercast
4:15 PM56.5 °F51.6 °F84 %30.11 in10.0 miSSE (160°)9.2 mphOvercast
4:35 PM56.5 °F51.3 °F83 %30.10 in10.0 miSSE (150°)10.4 mphOvercast
4:55 PM56.3 °F51.4 °F84 %30.09 in10.0 miSSE (160°)9.2 mphOvercast
5:15 PM56.3 °F51.1 °F83 %30.09 in10.0 miSSE (150°)8.1 mphOvercast
5:35 PM55.8 °F51.1 °F84 %30.08 in10.0 miSSE (150°)5.8 mphMostly Cloudy
5:55 PM56.7 °F51.1 °F82 %30.07 in10.0 miSE (140°)8.1 mphOvercast
6:15 PM56.8 °F51.1 °F81 %30.07 in10.0 miSE (140°)6.9 mphOvercast
6:35 PM57.4 °F51.3 °F80 %30.07 in10.0 miSSE (150°)10.4 mphRainLight Rain
6:55 PM57.6 °F51.4 °F80 %30.07 in10.0 miSSE (160°)13.8 mphLight Drizzle
7:15 PM57.0 °F51.8 °F83 %30.06 in5.0 miSSE (160°)13.8 mph23.0 mphRainLight Rain
7:35 PM56.5 °F52.3 °F86 %30.05 in7.0 miSSE (160°)13.8 mph19.6 mphRainRain
7:55 PM55.8 °F52.7 °F89 %30.04 in7.0 miSSE (160°)13.8 mphDrizzle
8:15 PM56.3 °F52.3 °F87 %30.03 in10.0 miSSE (160°)12.7 mph18.4 mphOvercast
8:35 PM56.7 °F52.0 °F84 %30.02 in10.0 miSSE (160°)12.7 mph18.4 mphOvercast
8:55 PM57.0 °F51.3 °F81 %30.02 in10.0 miSouth (170°)9.2 mphOvercast
9:15 PM57.6 °F50.0 °F76 %30.02 in10.0 miSouth (180°)12.7 mph19.6 mphOvercast
9:35 PM57.6 °F49.3 °F74 %30.02 in10.0 miSouth (180°)15.0 mphOvercast
9:55 PM56.3 °F50.0 °F79 %30.01 in7.0 miSouth (180°)12.7 mph19.6 mphRainRain
10:15 PM56.5 °F50.0 °F79 %30.00 in10.0 miSouth (180°)13.8 mphOvercast
10:35 PM56.3 °F50.0 °F79 %29.99 in10.0 miSouth (180°)15.0 mph19.6 mphOvercast
10:55 PM56.7 °F49.8 °F78 %29.98 in10.0 miSouth (170°)13.8 mphOvercast
11:15 PM57.2 °F49.6 °F76 %29.98 in10.0 miSouth (180°)15.0 mphOvercast
11:35 PM57.6 °F49.8 °F75 %29.98 in10.0 miSouth (180°)17.3 mph23.0 mphRainLight Rain
11:55 PM57.7 °F50.5 °F77 %29.98 in10.0 miSouth (180°)18.4 mph24.2 mphRainLight Rain
Hourly data recorded from KAAA, located miles away from Lincoln, Illinois







STORIES FROM OUR PARTNERS